This is the latest recevied weather packets stored in our database for station/object F4GSP-4. If no packets are shown the sender has not sent any weather packets the latest 10 day(s).
| Time | Temp. | Humidity | Pressure | Rain* | Wind** | Luminosity | Snow |
|---|---|---|---|---|---|---|---|
| 1778209717 | 3.89° C | 53% | 1025.1 hPa | - | - | - | - |
| 1778208816 | 3.89° C | 53% | 1025.2 hPa | - | - | - | - |
| 1778207916 | 4.44° C | 53% | 1025.1 hPa | - | - | - | - |
| 1778207016 | 4.44° C | 53% | 1025.2 hPa | - | - | - | - |
| 1778206116 | 4.44° C | 53% | 1025.2 hPa | - | - | - | - |
| 1778205216 | 4.44° C | 53% | 1025.1 hPa | - | - | - | - |
| 1778204316 | 5° C | 53% | 1025.1 hPa | - | - | - | - |
| 1778203416 | 5° C | 52% | 1025 hPa | - | - | - | - |
| 1778202515 | 5° C | 52% | 1025 hPa | - | - | - | - |
| 1778201615 | 5.56° C | 52% | 1025 hPa | - | - | - | - |
| 1778200715 | 5.56° C | 52% | 1025 hPa | - | - | - | - |
| 1778199815 | 5.56° C | 52% | 1025.1 hPa | - | - | - | - |
| 1778198915 | 6.11° C | 51% | 1025.3 hPa | - | - | - | - |
| 1778198015 | 6.67° C | 52% | 1025.4 hPa | - | - | - | - |
| 1778197114 | 6.67° C | 51% | 1025.5 hPa | - | - | - | - |
| 1778196214 | 6.67° C | 51% | 1025.5 hPa | - | - | - | - |
| 1778195314 | 6.67° C | 51% | 1025.6 hPa | - | - | - | - |
| 1778194414 | 6.67° C | 51% | 1025.6 hPa | - | - | - | - |
| 1778193514 | 6.67° C | 50% | 1025.4 hPa | - | - | - | - |
| 1778192614 | 7.22° C | 50% | 1025.4 hPa | - | - | - | - |
| 1778191714 | 7.22° C | 50% | 1025.2 hPa | - | - | - | - |
| 1778190813 | 7.78° C | 49% | 1025.1 hPa | - | - | - | - |
| 1778189913 | 8.33° C | 49% | 1025 hPa | - | - | - | - |
| 1778189013 | 8.89° C | 49% | 1024.8 hPa | - | - | - | - |
| 1778188113 | 9.44° C | 49% | 1024.6 hPa | - | - | - | - |
* Rain since midnight (hover to see other rain measurements)
** Current wind speed in m/s (hover to see current wind gust speed)